| time (UTC) | temp F | wind direction | speed knots | gust knots | rain 1hr in | rain 24hr in | rain mn in | humidity % | barometer mb |
| 20260906172203 | 99 | 73 | 0.9 | 2.6 | 0.00 | 0.00 | 0.00 | 42 | 1011.6 |
| 20260906171703 | 99 | 59 | 2.6 | 6.1 | 0.00 | 0.00 | 0.00 | 42 | 1011.7 |
| 20260906171204 | 99 | 104 | 0.9 | 4.3 | 0.00 | 0.00 | 0.00 | 44 | 1011.7 |
| 20260906170704 | 100 | 35 | 0.9 | 6.1 | 0.00 | 0.00 | 0.00 | 44 | 1011.8 |
| 20260906165704 | 98 | 187 | 0.0 | 0.9 | 0.00 | 0.00 | 0.00 | 47 | 1012.0 |
| 20260906165204 | 96 | 180 | 0.0 | 2.6 | 0.00 | 0.00 | 0.00 | 47 | 1012.0 |
| 20260906164703 | 96 | 69 | 0.9 | 5.2 | 0.00 | 0.00 | 0.00 | 47 | 1012.0 |
| 20260906164204 | 97 | 28 | 1.7 | 5.2 | 0.00 | 0.00 | 0.00 | 47 | 1012.2 |
| 20260906163704 | 96 | 0 | 0.9 | 2.6 | 0.00 | 0.00 | 0.00 | 48 | 1012.2 |
| 20260906162704 | 96 | 124 | 0.0 | 0.9 | 0.00 | 0.00 | 0.00 | 49 | 1012.2 |
| 20260906161703 | 96 | 49 | 0.9 | 2.6 | 0.00 | 0.00 | 0.00 | 49 | 1012.3 |
| 20260906161203 | 96 | 212 | 0.9 | 2.6 | 0.00 | 0.00 | 0.00 | 50 | 1012.3 |
| 20260906160704 | 96 | 297 | 0.0 | 1.7 | 0.00 | 0.00 | 0.00 | 51 | 1012.3 |
| 20260906160204 | 95 | 304 | 0.0 | 1.7 | 0.00 | 0.00 | 0.00 | 51 | 1012.3 |
| 20260906155703 | 95 | 69 | 0.9 | 2.6 | 0.00 | 0.00 | 0.00 | 51 | 1012.3 |
| 20260906155204 | 95 | 319 | 0.0 | 0.0 | 0.00 | 0.00 | 0.00 | 51 | 1012.3 |
| 20260906154703 | 95 | 287 | 0.9 | 1.7 | 0.00 | 0.00 | 0.00 | 51 | 1012.3 |
| 20260906153704 | 93 | 201 | 0.0 | 1.7 | 0.00 | 0.00 | 0.00 | 53 | 1012.4 |
| 20260906153203 | 93 | 323 | 0.9 | 1.7 | 0.00 | 0.00 | 0.00 | 56 | 1012.3 |
| 20260906152704 | 93 | 50 | 0.9 | 2.6 | 0.00 | 0.00 | 0.00 | 55 | 1012.3 |
| 20260906152204 | 92 | 189 | 0.0 | 1.7 | 0.00 | 0.00 | 0.00 | 58 | 1012.3 |
| 20260906151703 | 91 | 200 | 0.0 | 1.7 | 0.00 | 0.00 | 0.00 | 59 | 1012.3 |
| 20260906151204 | 90 | 155 | 0.9 | 1.7 | 0.00 | 0.00 | 0.00 | 60 | 1012.3 |
| 20260906150204 | 89 | 202 | 1.7 | 2.6 | 0.00 | 0.00 | 0.00 | 61 | 1012.2 |
| 20260906145703 | 88 | 211 | 0.9 | 2.6 | 0.00 | 0.00 | 0.00 | 61 | 1012.2 |
| 20260906145204 | 88 | 190 | 0.9 | 2.6 | 0.00 | 0.00 | 0.00 | 61 | 1012.1 |
| 20260906144703 | 88 | 189 | 1.7 | 2.6 | 0.00 | 0.00 | 0.00 | 61 | 1012.2 |
| 20260906144203 | 88 | 193 | 0.9 | 2.6 | 0.00 | 0.00 | 0.00 | 62 | 1012.2 |
| 20260906143704 | 88 | 195 | 1.7 | 2.6 | 0.00 | 0.00 | 0.00 | 61 | 1012.2 |
| 20260906143203 | 89 | 199 | 0.0 | 1.7 | 0.00 | 0.00 | 0.00 | 60 | 1012.2 |
| 20260906142704 | 89 | 163 | 0.0 | 0.0 | 0.00 | 0.00 | 0.00 | 61 | 1012.2 |
| 20260906142204 | 88 | 56 | 0.0 | 0.0 | 0.00 | 0.00 | 0.00 | 62 | 1012.3 |
| 20260906141204 | 88 | 56 | 0.0 | 0.0 | 0.00 | 0.00 | 0.00 | 65 | 1012.3 |
| 20260906140704 | 87 | 56 | 0.0 | 0.0 | 0.00 | 0.00 | 0.00 | 66 | 1012.2 |
| 20260906140204 | 85 | 47 | 0.0 | 0.0 | 0.00 | 0.00 | 0.00 | 69 | 1012.2 |
| 20260906135703 | 84 | 47 | 0.0 | 0.0 | 0.00 | 0.00 | 0.00 | 71 | 1012.2 |
| 20260906135204 | 84 | 47 | 0.0 | 0.0 | 0.00 | 0.00 | 0.00 | 71 | 1012.2 |
| 20260906133704 | 83 | 99 | 0.0 | 0.0 | 0.00 | 0.00 | 0.00 | 72 | 1012.2 |
| 20260906133203 | 82 | 99 | 0.0 | 0.0 | 0.00 | 0.00 | 0.00 | 73 | 1012.1 |
| 20260906132704 | 81 | 99 | 0.0 | 0.0 | 0.00 | 0.00 | 0.00 | 73 | 1012.1 |
| 20260906132203 | 80 | 99 | 0.0 | 0.0 | 0.00 | 0.00 | 0.00 | 75 | 1012.1 |
| 20260906131703 | 80 | 99 | 0.0 | 0.0 | 0.00 | 0.00 | 0.00 | 77 | 1012.1 |
| 20260906131204 | 79 | 99 | 0.0 | 0.0 | 0.00 | 0.00 | 0.00 | 76 | 1012.1 |
| 20260906130203 | 77 | 99 | 0.0 | 0.0 | 0.00 | 0.00 | 0.00 | 79 | 1011.9 |
| 20260906125704 | 76 | 99 | 0.0 | 0.0 | 0.00 | 0.00 | 0.00 | 80 | 1011.7 |
| 20260906125204 | 75 | 99 | 0.0 | 0.0 | 0.00 | 0.00 | 0.00 | 82 | 1011.8 |
| 20260906124203 | 75 | 99 | 0.0 | 0.0 | 0.00 | 0.00 | 0.00 | 81 | 1011.8 |
| 20260906123704 | 74 | 99 | 0.0 | 0.0 | 0.00 | 0.00 | 0.00 | 82 | 1011.6 |
| 20260906123204 | 74 | 99 | 0.0 | 0.0 | 0.00 | 0.00 | 0.00 | 82 | 1011.6 |
| 20260906122203 | 74 | 99 | 0.0 | 0.0 | 0.00 | 0.00 | 0.00 | 81 | 1011.6 |
| 20260906121204 | 74 | 99 | 0.0 | 0.0 | 0.00 | 0.00 | 0.00 | 81 | 1011.5 |
| 20260906120203 | 74 | 99 | 0.0 | 0.0 | 0.00 | 0.00 | 0.00 | 81 | 1011.4 |
| 20260906115704 | 74 | 99 | 0.0 | 0.0 | 0.00 | 0.00 | 0.00 | 81 | 1011.3 |
| 20260906114703 | 75 | 204 | 0.0 | 0.0 | 0.00 | 0.00 | 0.00 | 80 | 1011.2 |
| 20260906114204 | 75 | 204 | 0.0 | 0.0 | 0.00 | 0.00 | 0.00 | 79 | 1011.1 |
| 20260906113704 | 75 | 204 | 0.0 | 0.0 | 0.00 | 0.00 | 0.00 | 79 | 1011.0 |
| 20260906113204 | 74 | 204 | 0.0 | 0.0 | 0.00 | 0.00 | 0.00 | 79 | 1011.0 |
| 20260906112703 | 74 | 204 | 0.0 | 0.0 | 0.00 | 0.00 | 0.00 | 80 | 1011.0 |
| 20260906112203 | 73 | 204 | 0.0 | 0.0 | 0.00 | 0.00 | 0.00 | 81 | 1011.0 |
| 20260906111704 | 73 | 204 | 0.0 | 0.0 | 0.00 | 0.00 | 0.00 | 82 | 1011.0 |
| 20260906111203 | 73 | 204 | 0.0 | 0.0 | 0.00 | 0.00 | 0.00 | 83 | 1011.0 |
| 20260906110204 | 73 | 204 | 0.0 | 0.0 | 0.00 | 0.00 | 0.00 | 82 | 1011.0 |
| 20260906105703 | 74 | 204 | 0.0 | 0.0 | 0.00 | 0.00 | 0.00 | 81 | 1011.0 |
| 20260906105203 | 74 | 204 | 0.0 | 0.0 | 0.00 | 0.00 | 0.00 | 81 | 1010.9 |
| 20260906104704 | 74 | 204 | 0.0 | 0.0 | 0.00 | 0.00 | 0.00 | 81 | 1010.8 |
| 20260906104204 | 74 | 204 | 0.0 | 0.0 | 0.00 | 0.00 | 0.00 | 80 | 1010.9 |
| 20260906103703 | 75 | 204 | 0.0 | 0.0 | 0.00 | 0.00 | 0.00 | 80 | 1010.8 |
| 20260906102704 | 75 | 232 | 0.0 | 0.0 | 0.00 | 0.00 | 0.00 | 79 | 1010.8 |
| 20260906102203 | 75 | 232 | 0.0 | 0.0 | 0.00 | 0.00 | 0.00 | 78 | 1010.7 |
| 20260906101704 | 75 | 232 | 0.0 | 0.0 | 0.00 | 0.00 | 0.00 | 78 | 1010.7 |
| 20260906100703 | 75 | 232 | 0.0 | 0.0 | 0.00 | 0.00 | 0.00 | 78 | 1010.7 |
| 20260906100203 | 75 | 232 | 0.0 | 0.0 | 0.00 | 0.00 | 0.00 | 78 | 1010.7 |
| 20260906095703 | 75 | 232 | 0.0 | 0.0 | 0.00 | 0.00 | 0.00 | 78 | 1010.7 |
| 20260906094704 | 74 | 232 | 0.0 | 0.0 | 0.00 | 0.00 | 0.00 | 80 | 1010.7 |
| 20260906094204 | 74 | 232 | 0.0 | 0.0 | 0.00 | 0.00 | 0.00 | 80 | 1010.7 |
| 20260906093704 | 74 | 232 | 0.0 | 0.0 | 0.00 | 0.00 | 0.00 | 80 | 1010.7 |
| 20260906093203 | 74 | 232 | 0.0 | 0.0 | 0.00 | 0.00 | 0.00 | 79 | 1010.7 |
| 20260906092704 | 75 | 232 | 0.0 | 0.0 | 0.00 | 0.00 | 0.00 | 79 | 1010.7 |
| 20260906092204 | 75 | 232 | 0.0 | 0.0 | 0.00 | 0.00 | 0.00 | 78 | 1010.7 |
| 20260906090704 | 76 | 232 | 0.0 | 0.0 | 0.00 | 0.00 | 0.00 | 77 | 1010.5 |
| 20260906090203 | 75 | 232 | 0.0 | 0.0 | 0.00 | 0.00 | 0.00 | 77 | 1010.5 |
| 20260906085703 | 75 | 232 | 0.0 | 0.0 | 0.00 | 0.00 | 0.00 | 77 | 1010.6 |
| 20260906085204 | 76 | 232 | 0.0 | 0.0 | 0.00 | 0.00 | 0.00 | 78 | 1010.6 |
| 20260906084704 | 76 | 232 | 0.0 | 0.0 | 0.00 | 0.00 | 0.00 | 76 | 1010.5 |
| 20260906083704 | 76 | 232 | 0.0 | 0.0 | 0.00 | 0.00 | 0.00 | 76 | 1010.5 |
| 20260906083203 | 76 | 232 | 0.0 | 0.0 | 0.00 | 0.00 | 0.00 | 76 | 1010.5 |
| 20260906082704 | 76 | 232 | 0.0 | 0.0 | 0.00 | 0.00 | 0.00 | 76 | 1010.6 |
| 20260906082204 | 77 | 232 | 0.0 | 0.0 | 0.00 | 0.00 | 0.00 | 77 | 1010.6 |
| 20260906081704 | 77 | 232 | 0.0 | 0.0 | 0.00 | 0.00 | 0.00 | 75 | 1010.5 |
| 20260906081203 | 77 | 232 | 0.0 | 0.0 | 0.00 | 0.00 | 0.00 | 76 | 1010.5 |
| 20260906080204 | 77 | 232 | 0.0 | 0.0 | 0.00 | 0.00 | 0.00 | 74 | 1010.5 |
| 20260906075703 | 77 | 232 | 0.0 | 0.0 | 0.00 | 0.00 | 0.00 | 73 | 1010.5 |
| 20260906075204 | 78 | 232 | 0.0 | 0.0 | 0.00 | 0.00 | 0.00 | 73 | 1010.5 |
| 20260906074203 | 78 | 232 | 0.0 | 0.0 | 0.00 | 0.00 | 0.00 | 72 | 1010.5 |
| 20260906073704 | 78 | 232 | 0.0 | 0.0 | 0.00 | 0.00 | 0.00 | 73 | 1010.5 |
| 20260906072703 | 78 | 232 | 0.0 | 0.0 | 0.00 | 0.00 | 0.00 | 72 | 1010.6 |
| 20260906072204 | 78 | 232 | 0.0 | 0.0 | 0.00 | 0.00 | 0.00 | 73 | 1010.6 |
| 20260906071703 | 78 | 232 | 0.0 | 0.0 | 0.00 | 0.00 | 0.00 | 72 | 1010.6 |
| 20260906071204 | 78 | 232 | 0.0 | 0.0 | 0.00 | 0.00 | 0.00 | 72 | 1010.5 |
| 20260906070703 | 78 | 232 | 0.0 | 0.0 | 0.00 | 0.00 | 0.00 | 71 | 1010.5 |
| 20260906070204 | 78 | 232 | 0.0 | 0.0 | 0.00 | 0.00 | 0.00 | 71 | 1010.5 |
| 20260906065704 | 78 | 232 | 0.0 | 0.0 | 0.00 | 0.00 | 0.00 | 71 | 1010.5 |
| 20260906065204 | 78 | 232 | 0.0 | 0.0 | 0.00 | 0.00 | 0.00 | 71 | 1010.6 |
| 20260906064703 | 78 | 232 | 0.0 | 0.0 | 0.00 | 0.00 | 0.00 | 71 | 1010.6 |
| 20260906064204 | 78 | 232 | 0.0 | 0.0 | 0.00 | 0.00 | 0.00 | 71 | 1010.6 |
| 20260906063703 | 78 | 232 | 0.0 | 0.0 | 0.00 | 0.00 | 0.00 | 71 | 1010.6 |
| 20260906063203 | 78 | 232 | 0.0 | 0.0 | 0.00 | 0.00 | 0.00 | 71 | 1010.7 |
| 20260906062704 | 78 | 232 | 0.0 | 0.0 | 0.00 | 0.00 | 0.00 | 72 | 1010.6 |
| 20260906062203 | 78 | 232 | 0.0 | 0.0 | 0.00 | 0.00 | 0.00 | 74 | 1010.7 |
| 20260906061704 | 78 | 232 | 0.0 | 0.0 | 0.00 | 0.00 | 0.00 | 73 | 1010.6 |
| 20260906060704 | 79 | 232 | 0.0 | 0.0 | 0.00 | 0.00 | 0.00 | 72 | 1010.6 |
| 20260906060204 | 79 | 232 | 0.0 | 0.0 | 0.00 | 0.00 | 0.00 | 71 | 1010.5 |
| 20260906055704 | 79 | 232 | 0.0 | 0.0 | 0.00 | 0.00 | 0.00 | 70 | 1010.6 |
| 20260906054703 | 79 | 232 | 0.0 | 0.0 | 0.00 | 0.00 | 0.00 | 70 | 1010.5 |
| 20260906054204 | 79 | 232 | 0.0 | 0.0 | 0.00 | 0.00 | 0.00 | 71 | 1010.7 |
| 20260906053704 | 79 | 232 | 0.0 | 0.0 | 0.00 | 0.00 | 0.00 | 70 | 1010.6 |
| 20260906053204 | 79 | 232 | 0.0 | 0.0 | 0.00 | 0.00 | 0.00 | 71 | 1010.5 |
| 20260906052703 | 79 | 232 | 0.0 | 0.0 | 0.00 | 0.00 | 0.00 | 71 | 1010.4 |
| 20260906052204 | 80 | 232 | 0.0 | 0.0 | 0.00 | 0.00 | 0.00 | 72 | 1010.5 |
| 20260906051703 | 79 | 232 | 0.0 | 0.0 | 0.00 | 0.00 | 0.00 | 71 | 1010.5 |
| 20260906051204 | 79 | 232 | 0.0 | 0.0 | 0.00 | 0.00 | 0.00 | 72 | 1010.5 |
| 20260906050704 | 80 | 232 | 0.0 | 0.0 | 0.00 | 0.00 | 0.00 | 71 | 1010.4 |
| 20260906050204 | 80 | 76 | 0.0 | 0.0 | 0.00 | 0.00 | 0.00 | 70 | 1010.4 |
| 20260906045703 | 81 | 130 | 0.0 | 0.0 | 0.00 | 0.00 | 0.00 | 71 | 1010.4 |
| 20260906045204 | 81 | 130 | 0.0 | 0.0 | 0.00 | 0.00 | 0.00 | 68 | 1010.4 |
| 20260906044704 | 81 | 130 | 0.0 | 0.0 | 0.00 | 0.00 | 0.00 | 67 | 1010.5 |
| 20260906044203 | 82 | 130 | 0.0 | 0.0 | 0.00 | 0.00 | 0.00 | 67 | 1010.4 |
| 20260906043704 | 81 | 60 | 0.0 | 0.0 | 0.00 | 0.00 | 0.00 | 66 | 1010.4 |
| 20260906043204 | 81 | 70 | 0.0 | 0.0 | 0.00 | 0.00 | 0.00 | 68 | 1010.5 |
| 20260906042704 | 81 | 75 | 0.0 | 0.0 | 0.00 | 0.00 | 0.00 | 68 | 1010.5 |
| 20260906041704 | 82 | 75 | 0.0 | 0.0 | 0.00 | 0.00 | 0.00 | 67 | 1010.3 |
| 20260906041204 | 82 | 75 | 0.0 | 0.0 | 0.00 | 0.00 | 0.00 | 66 | 1010.4 |
| 20260906040703 | 83 | 75 | 0.0 | 0.0 | 0.00 | 0.00 | 0.00 | 65 | 1010.4 |
| 20260906035703 | 83 | 75 | 0.0 | 0.0 | 0.00 | 0.00 | 0.00 | 64 | 1010.3 |
| 20260906035204 | 84 | 75 | 0.0 | 0.0 | 0.00 | 0.00 | 0.00 | 63 | 1010.3 |
| 20260906034703 | 84 | 75 | 0.0 | 0.0 | 0.00 | 0.00 | 0.00 | 62 | 1010.3 |
| 20260906034204 | 85 | 47 | 0.0 | 0.0 | 0.00 | 0.00 | 0.00 | 62 | 1010.3 |
| 20260906032704 | 85 | 46 | 0.0 | 0.0 | 0.00 | 0.00 | 0.00 | 61 | 1010.2 |
| 20260906032204 | 85 | 53 | 0.0 | 0.0 | 0.00 | 0.00 | 0.00 | 61 | 1010.3 |
| 20260906031703 | 85 | 64 | 0.0 | 0.0 | 0.00 | 0.00 | 0.00 | 61 | 1010.2 |
| 20260906031204 | 84 | 64 | 0.0 | 0.0 | 0.00 | 0.00 | 0.00 | 61 | 1010.1 |
| 20260906030704 | 85 | 64 | 0.0 | 0.0 | 0.00 | 0.00 | 0.00 | 61 | 1010.2 |
| 20260906030203 | 85 | 64 | 0.0 | 0.0 | 0.00 | 0.00 | 0.00 | 61 | 1010.1 |
| 20260906025704 | 86 | 64 | 0.0 | 0.0 | 0.00 | 0.00 | 0.00 | 59 | 1010.2 |
| 20260906025203 | 86 | 64 | 0.0 | 0.0 | 0.00 | 0.00 | 0.00 | 59 | 1010.0 |
| 20260906024704 | 86 | 64 | 0.0 | 0.9 | 0.00 | 0.00 | 0.00 | 58 | 1009.9 |
| 20260906024203 | 87 | 64 | 0.0 | 0.9 | 0.00 | 0.00 | 0.00 | 58 | 1009.9 |
| 20260906023704 | 87 | 64 | 0.0 | 1.7 | 0.00 | 0.00 | 0.00 | 58 | 1009.9 |
| 20260906023203 | 87 | 45 | 0.9 | 2.6 | 0.00 | 0.00 | 0.00 | 58 | 1009.8 |
| 20260906021703 | 87 | 59 | 0.9 | 2.6 | 0.00 | 0.00 | 0.00 | 60 | 1009.8 |
| 20260906021204 | 87 | 23 | 0.0 | 1.7 | 0.00 | 0.00 | 0.00 | 60 | 1009.6 |
| 20260906020703 | 87 | 23 | 0.0 | 0.0 | 0.00 | 0.00 | 0.00 | 59 | 1009.5 |
| 20260906020204 | 87 | 23 | 0.0 | 0.0 | 0.00 | 0.00 | 0.00 | 59 | 1009.5 |
| 20260906015703 | 88 | 23 | 0.0 | 2.6 | 0.00 | 0.00 | 0.00 | 58 | 1009.5 |
| 20260906015204 | 88 | 8 | 0.0 | 0.0 | 0.00 | 0.00 | 0.00 | 56 | 1009.4 |
| 20260906014703 | 89 | 55 | 0.0 | 2.6 | 0.00 | 0.00 | 0.00 | 55 | 1009.3 |
| 20260906014204 | 90 | 73 | 0.9 | 2.6 | 0.00 | 0.00 | 0.00 | 54 | 1009.3 |
| 20260906013204 | 90 | 68 | 1.7 | 2.6 | 0.00 | 0.00 | 0.00 | 52 | 1009.1 |
| 20260906012704 | 90 | 11 | 0.0 | 0.0 | 0.00 | 0.00 | 0.00 | 51 | 1009.0 |
| 20260906012204 | 90 | 11 | 0.0 | 0.0 | 0.00 | 0.00 | 0.00 | 51 | 1008.9 |
| 20260906011703 | 90 | 11 | 0.0 | 0.0 | 0.00 | 0.00 | 0.00 | 51 | 1008.9 |
| 20260906011204 | 90 | 11 | 0.0 | 0.0 | 0.00 | 0.00 | 0.00 | 51 | 1008.8 |
| 20260906005704 | 91 | 11 | 0.0 | 0.0 | 0.00 | 0.00 | 0.00 | 50 | 1008.7 |
| 20260906004704 | 91 | 11 | 0.0 | 0.0 | 0.00 | 0.00 | 0.00 | 49 | 1008.6 |
| 20260906003703 | 92 | 11 | 0.0 | 0.0 | 0.00 | 0.00 | 0.00 | 48 | 1008.7 |
| 20260906003203 | 93 | 11 | 0.0 | 0.0 | 0.00 | 0.00 | 0.00 | 48 | 1008.6 |
| 20260906002704 | 94 | 11 | 0.0 | 0.0 | 0.00 | 0.00 | 0.00 | 47 | 1008.6 |
| 20260906002203 | 95 | 11 | 0.0 | 0.0 | 0.00 | 0.00 | 0.00 | 46 | 1008.6 |
| 20260906001704 | 95 | 11 | 0.0 | 0.0 | 0.00 | 0.00 | 0.00 | 45 | 1008.5 |
| 20260906001204 | 97 | 11 | 0.0 | 0.0 | 0.00 | 0.00 | 0.00 | 44 | 1008.6 |
| 20260906000703 | 97 | 11 | 0.0 | 0.0 | 0.00 | 0.00 | 0.00 | 44 | 1008.6 |
| 20260906000204 | 98 | 11 | 0.0 | 0.0 | 0.00 | 0.00 | 0.00 | 42 | 1008.6 |
| 20260905235703 | 99 | 11 | 0.0 | 0.0 | 0.00 | 0.00 | 0.00 | 41 | 1008.6 |
| 20260905235204 | 100 | 11 | 0.0 | 0.9 | 0.00 | 0.00 | 0.00 | 40 | 1008.6 |
| 20260905234704 | 100 | 55 | 0.0 | 0.9 | 0.00 | 0.00 | 0.00 | 40 | 1008.6 |
| 20260905234203 | 101 | 46 | 0.0 | 1.7 | 0.00 | 0.00 | 0.00 | 40 | 1008.6 |
| 20260905233704 | 102 | 197 | 0.0 | 0.9 | 0.00 | 0.00 | 0.00 | 38 | 1008.6 |
| 20260905233204 | 102 | 238 | 0.0 | 0.9 | 0.00 | 0.00 | 0.00 | 39 | 1008.6 |
| 20260905232703 | 101 | 238 | 0.0 | 1.7 | 0.00 | 0.00 | 0.00 | 39 | 1008.6 |
| 20260905231704 | 102 | 347 | 0.0 | 0.9 | 0.00 | 0.00 | 0.00 | 37 | 1008.7 |
| 20260905231203 | 102 | 336 | 0.0 | 0.9 | 0.00 | 0.00 | 0.00 | 37 | 1008.7 |
| 20260905230704 | 102 | 56 | 0.0 | 0.0 | 0.00 | 0.00 | 0.00 | 38 | 1008.7 |
| 20260905230203 | 102 | 240 | 0.9 | 1.7 | 0.00 | 0.00 | 0.00 | 36 | 1008.6 |
| 20260905225204 | 102 | 42 | 0.0 | 1.7 | 0.00 | 0.00 | 0.00 | 38 | 1008.5 |
| 20260905224704 | 100 | 43 | 0.0 | 0.9 | 0.00 | 0.00 | 0.00 | 38 | 1008.4 |
| 20260905224204 | 100 | 54 | 0.9 | 2.6 | 0.00 | 0.00 | 0.00 | 38 | 1008.4 |
| 20260905223703 | 101 | 65 | 0.9 | 1.7 | 0.00 | 0.00 | 0.00 | 37 | 1008.4 |
| 20260905223204 | 101 | 38 | 0.9 | 1.7 | 0.00 | 0.00 | 0.00 | 37 | 1008.4 |
| 20260905222704 | 101 | 50 | 1.7 | 5.2 | 0.00 | 0.00 | 0.00 | 37 | 1008.4 |
| 20260905222204 | 102 | 340 | 0.0 | 0.9 | 0.00 | 0.00 | 0.00 | 36 | 1008.4 |
| 20260905221704 | 102 | 63 | 0.0 | 1.7 | 0.00 | 0.00 | 0.00 | 37 | 1008.5 |
| 20260905221203 | 103 | 47 | 0.9 | 2.6 | 0.00 | 0.00 | 0.00 | 36 | 1008.5 |
| 20260905220703 | 103 | 58 | 0.0 | 2.6 | 0.00 | 0.00 | 0.00 | 37 | 1008.6 |
| 20260905220204 | 102 | 247 | 0.9 | 1.7 | 0.00 | 0.00 | 0.00 | 37 | 1008.6 |
| 20260905215704 | 101 | 212 | 0.9 | 1.7 | 0.00 | 0.00 | 0.00 | 39 | 1008.6 |
| 20260905215204 | 100 | 59 | 1.7 | 4.3 | 0.00 | 0.00 | 0.00 | 39 | 1008.8 |
| 20260905214704 | 101 | 6 | 1.7 | 4.3 | 0.00 | 0.00 | 0.00 | 39 | 1008.8 |
| 20260905213704 | 102 | 56 | 0.9 | 2.6 | 0.00 | 0.00 | 0.00 | 38 | 1008.9 |
| 20260905213204 | 102 | 260 | 0.0 | 1.7 | 0.00 | 0.00 | 0.00 | 40 | 1008.9 |
| 20260905212204 | 100 | 168 | 0.9 | 2.6 | 0.00 | 0.00 | 0.00 | 40 | 1009.0 |
| 20260905211704 | 99 | 163 | 0.9 | 1.7 | 0.00 | 0.00 | 0.00 | 40 | 1009.0 |
| 20260905211203 | 99 | 214 | 0.0 | 1.7 | 0.00 | 0.00 | 0.00 | 40 | 1009.2 |
| 20260905210704 | 99 | 253 | 0.0 | 1.7 | 0.00 | 0.00 | 0.00 | 40 | 1009.3 |
| 20260905210204 | 100 | 247 | 0.0 | 0.9 | 0.00 | 0.00 | 0.00 | 40 | 1009.3 |
| 20260905205704 | 100 | 257 | 0.0 | 0.9 | 0.00 | 0.00 | 0.00 | 41 | 1009.4 |
| 20260905205203 | 100 | 263 | 0.9 | 2.6 | 0.00 | 0.00 | 0.00 | 40 | 1009.5 |
| 20260905204704 | 99 | 275 | 0.9 | 5.2 | 0.00 | 0.00 | 0.00 | 40 | 1009.6 |
| 20260905204204 | 99 | 322 | 0.9 | 4.3 | 0.00 | 0.00 | 0.00 | 42 | 1009.7 |
| 20260905203704 | 99 | 0 | 0.9 | 5.2 | 0.00 | 0.00 | 0.00 | 41 | 1009.7 |
| 20260905203203 | 99 | 33 | 0.9 | 1.7 | 0.00 | 0.00 | 0.00 | 41 | 1009.8 |
| 20260905201704 | 99 | 57 | 0.9 | 6.1 | 0.00 | 0.00 | 0.00 | 41 | 1010.0 |
| 20260905201204 | 100 | 20 | 1.7 | 6.1 | 0.00 | 0.00 | 0.00 | 40 | 1010.1 |
| 20260905200204 | 101 | 297 | 0.0 | 2.6 | 0.00 | 0.00 | 0.00 | 41 | 1010.1 |
| 20260905195704 | 100 | 203 | 0.9 | 4.3 | 0.00 | 0.00 | 0.00 | 43 | 1010.2 |
| 20260905195204 | 99 | 83 | 2.6 | 6.1 | 0.00 | 0.00 | 0.00 | 42 | 1010.2 |
| 20260905194703 | 100 | 350 | 0.9 | 2.6 | 0.00 | 0.00 | 0.00 | 41 | 1010.4 |
| 20260905194204 | 100 | 251 | 1.7 | 2.6 | 0.00 | 0.00 | 0.00 | 43 | 1010.3 |
| 20260905193704 | 99 | 333 | 0.9 | 2.6 | 0.00 | 0.00 | 0.00 | 43 | 1010.4 |
| 20260905193203 | 99 | 286 | 2.6 | 7.0 | 0.00 | 0.00 | 0.00 | 43 | 1010.4 |
| 20260905192704 | 99 | 293 | 0.0 | 2.6 | 0.00 | 0.00 | 0.00 | 43 | 1010.6 |
| 20260905192204 | 99 | 294 | 0.9 | 2.6 | 0.00 | 0.00 | 0.00 | 45 | 1010.8 |
| 20260905191703 | 98 | 101 | 0.9 | 1.7 | 0.00 | 0.00 | 0.00 | 46 | 1010.8 |
| 20260905191204 | 97 | 116 | 0.0 | 0.9 | 0.00 | 0.00 | 0.00 | 47 | 1010.8 |
| 20260905190204 | 96 | 201 | 0.0 | 2.6 | 0.00 | 0.00 | 0.00 | 46 | 1011.0 |
| 20260905185703 | 97 | 251 | 0.0 | 0.9 | 0.00 | 0.00 | 0.00 | 45 | 1011.1 |
| 20260905185203 | 96 | 325 | 0.9 | 2.6 | 0.00 | 0.00 | 0.00 | 49 | 1011.2 |
| 20260905184704 | 96 | 51 | 0.0 | 4.3 | 0.00 | 0.00 | 0.00 | 49 | 1011.2 |
| 20260905183703 | 96 | 291 | 0.9 | 1.7 | 0.00 | 0.00 | 0.00 | 48 | 1011.4 |
| 20260905182704 | 96 | 322 | 0.9 | 10.4 | 0.00 | 0.00 | 0.00 | 50 | 1011.5 |
| 20260905182204 | 95 | 74 | 0.0 | 0.9 | 0.00 | 0.00 | 0.00 | 50 | 1011.7 |
| 20260905181704 | 95 | 64 | 0.9 | 1.7 | 0.00 | 0.00 | 0.00 | 49 | 1011.7 |
| 20260905181204 | 96 | 255 | 2.6 | 5.2 | 0.00 | 0.00 | 0.00 | 47 | 1011.7 |
| 20260905180704 | 97 | 263 | 0.9 | 5.2 | 0.00 | 0.00 | 0.00 | 48 | 1011.8 |
| 20260905175704 | 97 | 322 | 1.7 | 2.6 | 0.00 | 0.00 | 0.00 | 50 | 1011.9 |
| 20260905175204 | 96 | 249 | 0.9 | 6.1 | 0.00 | 0.00 | 0.00 | 49 | 1012.0 |
| 20260905174703 | 96 | 250 | 0.0 | 2.6 | 0.00 | 0.00 | 0.00 | 47 | 1012.0 |
| 20260905174203 | 96 | 42 | 1.7 | 2.6 | 0.00 | 0.00 | 0.00 | 47 | 1012.2 |
| 20260905173704 | 97 | 85 | 1.7 | 2.6 | 0.00 | 0.00 | 0.00 | 48 | 1012.3 |
| 20260905173204 | 96 | 205 | 0.9 | 5.2 | 0.00 | 0.00 | 0.00 | 50 | 1012.1 |
| 20260905172704 | 97 | 270 | 1.7 | 6.1 | 0.00 | 0.00 | 0.00 | 49 | 1012.2 |